Weather History for KMDT - October, 2012

Change the Weather History Date:

Saturday, October 27, 2012

  Actual Average Record
Temperature  
Mean Temperature 60 °F 51 °F  
Max Temperature 65 °F 61 °F 82 °F (1963)
Min Temperature 55 °F 41 °F 27 °F (1988)
Degree Days  
Heating Degree Days 5 14  
Month to date heating degree days 228 279  
Since 1 July heating degree days 281 351  
Cooling Degree Days 0 0  
Month to date cooling degree days 5 10  
Year to date cooling degree days 1226 1003  
Growing Degree Days 10 (Base 50)    
Moisture  
Dew Point 54 °F    
Average Humidity 80    
Maximum Humidity 93    
Minimum Humidity 67    
Precipitation  
Precipitation 0.00 in 0.09 in 1.54 in (1987)
Month to date precipitation 2.97 2.90  
Year to date precipitation 36.77 33.91  
Snow  
Snow 0.00 in - - ()
Month to date snowfall 0.0  
Since 1 July snowfall 0.0  
Since 1 September snowfall 0.0  
Snow Depth 0.00 in    
Sea Level Pressure  
Sea Level Pressure 29.97 in    
Wind  
Wind Speed 4 mph (East)    
Max Wind Speed 14 mph    
Max Gust Speed 17 mph    
Visibility 8 miles    
Events      
T = Trace of Precipitation, MM = Missing Value Source: NWS Daily Summary

Daily Weather History Graph

Daily Weather History Graph

Search for Another Location

Airport or City:

Trip Planner

Search our weather history database for the weather conditions in past years. The results will help you decide how hot, cold, wet, or windy it might be!

Date:

Astronomy

Oct. 27, 2012 Rise Set
Actual Time 7:31 AM EDT 6:09 PM EDT
Civil Twilight 7:03 AM EDT 6:37 PM EDT
Nautical Twilight 6:31 AM EDT 7:09 PM EDT
Astronomical Twilight 5:59 AM EDT 7:41 PM EDT
Moon 4:54 PM EDT (10/27) 5:24 AM EDT (10/27)
Length of Visible Light 11h 34m
Length of Day
10h 38m
Waxing Gibbous, 96% of the Moon is Illuminated
Oct 27
Waxing Gibbous
Oct 29
Full
Nov 6
Last Quarter
Nov 13
New
Nov 20
First Quarter

Hourly Weather History & Observations

Time (EDT) Temp. Dew Point Humidity Pressure Visibility Wind Dir Wind Speed Gust Speed Precip Events Conditions
12:56 AM 61.0 °F 57.0 °F 87% 30.06 in 7.0 mi SE 3.5 mph - N/A   Overcast
1:36 AM 60.8 °F 55.4 °F 82% 30.04 in 7.0 mi ESE 3.5 mph - N/A   Overcast
1:56 AM 60.1 °F 55.9 °F 86% 30.04 in 7.0 mi ESE 3.5 mph - N/A   Overcast
2:56 AM 60.1 °F 57.0 °F 90% 30.03 in 7.0 mi Calm Calm - N/A   Overcast
3:35 AM 60.8 °F 55.4 °F 82% 30.01 in 8.0 mi Calm Calm - N/A   Overcast
3:56 AM 60.1 °F 55.9 °F 86% 30.01 in 8.0 mi Calm Calm - N/A   Overcast
4:56 AM 60.1 °F 55.9 °F 86% 30.01 in 8.0 mi Calm Calm - N/A   Overcast
5:56 AM 57.9 °F 55.0 °F 90% 30.00 in 6.0 mi Calm Calm - N/A   Overcast
6:56 AM 59.0 °F 55.9 °F 90% 30.00 in 5.0 mi Calm Calm - N/A   Overcast
7:56 AM 59.0 °F 55.0 °F 87% 30.01 in 5.0 mi NE 3.5 mph - N/A   Overcast
8:56 AM 60.1 °F 55.9 °F 86% 30.01 in 5.0 mi East 5.8 mph - N/A   Overcast
9:56 AM 61.0 °F 55.0 °F 81% 30.01 in 8.0 mi East 4.6 mph - N/A   Overcast
10:56 AM 61.0 °F 54.0 °F 78% 30.01 in 9.0 mi SE 4.6 mph - N/A   Overcast
11:56 AM 62.1 °F 54.0 °F 75% 30.00 in 9.0 mi ESE 6.9 mph - N/A   Overcast
12:56 PM 62.6 °F 53.6 °F 72% 29.96 in 9.0 mi East 10.4 mph - N/A   Overcast
1:56 PM 63.0 °F 54.0 °F 72% 29.95 in 9.0 mi ESE 6.9 mph - N/A   Overcast
2:38 PM 64.4 °F 53.6 °F 68% 29.93 in 10.0 mi ENE 4.6 mph - N/A   Overcast
2:56 PM 64.0 °F 54.0 °F 70% 29.93 in 10.0 mi ESE 5.8 mph - N/A   Overcast
3:27 PM 64.4 °F 53.6 °F 68% 29.92 in 10.0 mi SE 4.6 mph - N/A   Overcast
3:56 PM 64.0 °F 54.0 °F 70% 29.92 in 10.0 mi ESE 8.1 mph - N/A   Overcast
4:56 PM 63.0 °F 53.1 °F 70% 29.92 in 10.0 mi East 5.8 mph - N/A   Overcast
5:56 PM 62.1 °F 53.1 °F 72% 29.92 in 10.0 mi ENE 3.5 mph - N/A   Overcast
6:56 PM 61.0 °F 53.1 °F 75% 29.92 in 10.0 mi NE 3.5 mph - N/A   Overcast
7:56 PM 60.1 °F 54.0 °F 80% 29.92 in 10.0 mi NE 3.5 mph - N/A   Overcast
8:56 PM 59.0 °F 53.1 °F 81% 29.91 in 9.0 mi NE 4.6 mph - N/A   Overcast
9:56 PM 59.0 °F 53.1 °F 81% 29.91 in 8.0 mi Calm Calm - N/A   Overcast
10:56 PM 55.0 °F 52.0 °F 89% 29.91 in 7.0 mi Calm Calm - N/A   Overcast
11:56 PM 57.0 °F 52.0 °F 83% 29.90 in 6.0 mi Calm Calm - N/A   Haze